Crosby, ND

10:21 AM CST on December 06, 2019 (GMT -0600)
Crosby

Weather History for KD50 - August, 2019

Change the Weather History Date:

Wednesday, August 28, 2019

  Actual Average (KISN) Record (KISN)
Temperature  
Mean Temperature 63 °F -  
Max Temperature 82 °F 81 °F 100 °F (1996)
Min Temperature 44 °F 53 °F 34 °F (1988)
Degree Days  
Heating Degree Days 2    
Growing Degree Days 13 (Base 50)    
Moisture  
Dew Point 46 °F    
Average Humidity 64    
Maximum Humidity 100    
Minimum Humidity 21    
Precipitation  
Precipitation 0.00 in - - ()
Sea Level Pressure  
Sea Level Pressure 29.88 in    
Wind  
Wind Speed 10 mph (WSW)    
Max Wind Speed 29 mph    
Max Gust Speed 40 mph    
Visibility 10 miles    
Events      
Averages and records for this station are not official NWS values.
T = Trace of Precipitation, MM = Missing Value Source: NWS Daily Summary

Daily Weather History Graph

Daily Weather History Graph

Search for Another Location

Airport or City:

Astronomy

Aug. 28, 2019 Rise Set
Actual Time 7:03 AM CDT 8:43 PM CDT
Civil Twilight 6:30 AM CDT 9:17 PM CDT
Nautical Twilight 5:49 AM CDT 9:57 PM CDT
Astronomical Twilight 5:04 AM CDT 10:42 PM CDT
Moon 4:22 AM CDT (8/28) 8:10 PM CDT (8/28)
Length of Visible Light 14h 46m
Length of Day
13h 39m
Waning Crescent, 4% of the Moon is Illuminated
Aug 28
Waning Crescent
Aug 30
New
Sep 5
First Quarter
Sep 13
Full
Sep 21
Last Quarter

Hourly Weather History & Observations

Time (CDT) Temp. Windchill Dew Point Humidity Pressure Visibility Wind Dir Wind Speed Gust Speed Precip Events Conditions
12:15 AM 51.8 °F - 51.8 °F 100% 29.99 in 10.0 mi West 6.9 mph - N/A   Clear
12:35 AM 51.8 °F - 51.8 °F 100% 29.99 in 10.0 mi WNW 10.4 mph - N/A   Clear
12:55 AM 51.8 °F - 50.0 °F 94% 29.99 in 10.0 mi WNW 9.2 mph - N/A   Clear
1:15 AM 50.0 °F - 50.0 °F 100% 29.99 in 10.0 mi WNW 8.1 mph - N/A   Clear
1:35 AM 50.0 °F - 50.0 °F 100% 29.98 in 10.0 mi West 8.1 mph - N/A   Clear
1:55 AM 50.0 °F - 50.0 °F 100% 29.98 in 10.0 mi West 6.9 mph - N/A   Clear
2:15 AM 48.2 °F - 48.2 °F 100% 29.98 in 10.0 mi West 6.9 mph - N/A   Clear
2:35 AM 48.2 °F - 48.2 °F 100% 29.98 in 10.0 mi West 9.2 mph - N/A   Clear
2:55 AM 48.2 °F - 48.2 °F 100% 29.98 in 10.0 mi West 8.1 mph - N/A   Clear
3:15 AM 48.2 °F - 48.2 °F 100% 29.98 in 10.0 mi West 8.1 mph - N/A   Clear
3:35 AM 46.4 °F 42.4 °F 46.4 °F 100% 29.97 in 10.0 mi WSW 8.1 mph - N/A   Clear
3:55 AM 46.4 °F 42.9 °F 46.4 °F 100% 29.97 in 10.0 mi West 6.9 mph - N/A   Clear
4:15 AM - - - N/A% 29.97 in 10.0 mi West 9.2 mph - N/A   Clear
4:35 AM - - - N/A% 29.97 in 10.0 mi West 9.2 mph - N/A   Clear
4:55 AM 46.4 °F 42.4 °F 46.4 °F 100% 29.96 in 10.0 mi West 8.1 mph - N/A   Clear
5:15 AM 46.4 °F 42.4 °F 46.4 °F 100% 29.97 in 10.0 mi WSW 8.1 mph - N/A   Clear
5:35 AM 46.4 °F 41.9 °F 46.4 °F 100% 29.97 in 10.0 mi WSW 9.2 mph - N/A   Clear
5:55 AM 46.4 °F 42.9 °F 46.4 °F 100% 29.97 in 10.0 mi SW 6.9 mph - N/A   Clear
6:35 AM 46.4 °F 42.4 °F 46.4 °F 100% 29.97 in 10.0 mi SW 8.1 mph - N/A   Clear
6:55 AM - - - N/A% 29.97 in 10.0 mi SSW 8.1 mph - N/A   Clear
7:15 AM 44.6 °F 41.4 °F 44.6 °F 100% 29.97 in 10.0 mi SW 5.8 mph - N/A   Clear
7:35 AM 46.4 °F 42.9 °F 46.4 °F 100% 29.96 in 10.0 mi SW 6.9 mph - N/A   Clear
7:55 AM 46.4 °F 43.5 °F 46.4 °F 100% 29.96 in 10.0 mi SSW 5.8 mph - N/A   Clear
8:15 AM 48.2 °F - 48.2 °F 100% 29.96 in 10.0 mi SSW 8.1 mph - N/A   Clear
8:35 AM 48.2 °F - 48.2 °F 100% 29.95 in 10.0 mi SSW 8.1 mph - N/A   Clear
8:55 AM 51.8 °F - 51.8 °F 100% 29.94 in 10.0 mi SSW 8.1 mph - N/A   Clear
9:15 AM 55.4 °F - 51.8 °F 88% 29.94 in 10.0 mi SW 5.8 mph - N/A   Clear
9:35 AM 60.8 °F - 50.0 °F 68% 29.94 in 10.0 mi SSW 9.2 mph - N/A   Clear
10:15 AM 64.4 °F - 46.4 °F 52% 29.92 in 10.0 mi SW 13.8 mph - N/A   Clear
10:35 AM 66.2 °F - 46.4 °F 49% 29.92 in 10.0 mi SW 12.7 mph - N/A   Clear
10:55 AM 68.0 °F - 46.4 °F 46% 29.91 in 10.0 mi SW 11.5 mph - N/A   Clear
11:15 AM 68.0 °F - 46.4 °F 46% 29.91 in 10.0 mi SW 13.8 mph 19.6 mph N/A   Clear
11:35 AM 69.8 °F - 42.8 °F 38% 29.90 in 10.0 mi SW 12.7 mph 19.6 mph N/A   Clear
11:55 AM 71.6 °F - 41.0 °F 33% 29.89 in 10.0 mi SW 15.0 mph - N/A   Clear
12:15 PM 73.4 °F - 42.8 °F 33% 29.89 in 10.0 mi SW 13.8 mph - N/A   Clear
12:35 PM 75.2 °F - 39.2 °F 27% 29.88 in 10.0 mi WSW 12.7 mph - N/A   Clear
12:55 PM 75.2 °F - 39.2 °F 27% 29.87 in 10.0 mi WSW 13.8 mph 24.2 mph N/A   Clear
1:15 PM 75.2 °F - 39.2 °F 27% 29.86 in 10.0 mi WSW 17.3 mph - N/A   Clear
1:35 PM 77.0 °F - 39.2 °F 26% 29.85 in 10.0 mi WSW 18.4 mph - N/A   Clear
1:55 PM 77.0 °F - 39.2 °F 26% 29.84 in 10.0 mi WSW 16.1 mph 21.9 mph N/A   Clear
2:15 PM 78.8 °F - 39.2 °F 24% 29.83 in 10.0 mi SW 15.0 mph - N/A   Clear
2:35 PM 78.8 °F - 37.4 °F 23% 29.82 in 10.0 mi SW 17.3 mph - N/A   Clear
2:55 PM 78.8 °F - 37.4 °F 23% 29.81 in 10.0 mi SW 13.8 mph 21.9 mph N/A   Partly Cloudy
3:15 PM 80.6 °F - 39.2 °F 23% 29.80 in - WSW 15.0 mph 24.2 mph N/A   Unknown
3:35 PM 80.6 °F - 39.2 °F 23% 29.79 in 10.0 mi SW 18.4 mph - N/A   Unknown
3:55 PM 82.4 °F - 39.2 °F 21% 29.78 in 10.0 mi WSW 20.7 mph 26.5 mph N/A   Scattered Clouds
4:35 PM 82.4 °F - 39.2 °F 21% 29.76 in 10.0 mi SW 16.1 mph 26.5 mph N/A   Clear
4:55 PM 82.4 °F - 41.0 °F 23% 29.74 in 10.0 mi SW 18.4 mph 26.5 mph N/A   Clear
5:15 PM 82.4 °F - 41.0 °F 23% 29.73 in 10.0 mi SW 16.1 mph 24.2 mph N/A   Partly Cloudy
5:35 PM 80.6 °F - 41.0 °F 24% 29.72 in 10.0 mi WSW 17.3 mph - N/A   Mostly Cloudy
5:55 PM 78.8 °F - 41.0 °F 26% 29.72 in 10.0 mi WSW 12.7 mph 19.6 mph N/A   Overcast
6:15 PM 78.8 °F - 42.8 °F 28% 29.72 in 10.0 mi WSW 11.5 mph 17.3 mph N/A   Mostly Cloudy
6:35 PM 77.0 °F - 42.8 °F 29% 29.74 in 10.0 mi NNW 28.8 mph 38.0 mph N/A   Overcast
6:55 PM 66.2 °F - 46.4 °F 49% 29.78 in 9.0 mi North 26.5 mph 40.3 mph N/A   Mostly Cloudy
7:15 PM 66.2 °F - 44.6 °F 46% 29.79 in 10.0 mi North 25.3 mph 34.5 mph N/A   Mostly Cloudy
7:35 PM 64.4 °F - 46.4 °F 52% 29.80 in 10.0 mi North 17.3 mph 25.3 mph N/A   Mostly Cloudy
7:55 PM 64.4 °F - 46.4 °F 52% 29.80 in 10.0 mi North 12.7 mph - N/A   Overcast
8:15 PM 64.4 °F - 48.2 °F 56% 29.81 in 10.0 mi North 9.2 mph - N/A   Overcast
8:35 PM 62.6 °F - 48.2 °F 59% 29.82 in 10.0 mi NNW 8.1 mph - N/A   Mostly Cloudy
8:55 PM 60.8 °F - 48.2 °F 63% 29.83 in 10.0 mi WNW 5.8 mph - N/A   Overcast
9:15 PM 60.8 °F - 50.0 °F 68% 29.83 in 10.0 mi West 4.6 mph - N/A   Overcast
9:35 PM 57.2 °F - 48.2 °F 72% 29.84 in 10.0 mi WNW 6.9 mph - N/A   Scattered Clouds
9:55 PM 57.2 °F - 50.0 °F 77% 29.84 in 10.0 mi WNW 5.8 mph - N/A   Scattered Clouds
10:15 PM 55.4 °F - 51.8 °F 88% 29.85 in 10.0 mi West 8.1 mph - N/A   Mostly Cloudy
10:35 PM 53.6 °F - 50.0 °F 88% 29.85 in 10.0 mi West 6.9 mph - N/A   Partly Cloudy
10:55 PM 57.2 °F - 50.0 °F 77% 29.85 in 10.0 mi West 11.5 mph - N/A   Clear
11:15 PM 60.8 °F - 46.4 °F 59% 29.86 in 10.0 mi WNW 20.7 mph 28.8 mph N/A   Clear
11:35 PM 59.0 °F - 46.4 °F 63% 29.88 in 10.0 mi WNW 12.7 mph 18.4 mph N/A   Clear
11:55 PM 57.2 °F - 46.4 °F 67% 29.88 in 10.0 mi WNW 11.5 mph - N/A   Clear